When you browse on this site, cookies collect data to enhance your experience and personalize the content and advertising you see.
Visit our Privacy Policy to learn more. By continuing to use the site, you agree to this use of cookies and data.
  • In Italy
  • List of Countries
  • For 7 days
  • Water Temperature
  • Satellite Maps
  • Weather Map
  • Weather Widgets
  • user-avatar
    Login

    Hourly Weather Korçe

    Today, 18 January, Friday

    Time Temperature Precipitation Wind Pressure Humidity
    00:00 -3°C° 0 mm 2 mps 665 mmHg 92%
    01:00 -3°C° 0 mm 2 mps 665 mmHg 94%
    02:00 -3°C° 0 mm 2 mps 665 mmHg 94%
    03:00 -3°C° 0 mm 2 mps 665 mmHg 95%
    04:00 -2°C° 0 mm 2 mps 665 mmHg 95%
    05:00 -2°C° 0 mm 2 mps 665 mmHg 96%
    06:00 -1°C° 0 mm 2 mps 665 mmHg 96%
    07:00 -1°C° 0 mm 2 mps 665 mmHg 97%
    08:00 +1°C° 0.3 mm 2 mps 665 mmHg 96%
    09:00 0°C° 0.3 mm 3 mps 665 mmHg 95%
    10:00 +1°C° 0.3 mm 3 mps 665 mmHg 94%
    11:00 +1°C° 0.6 mm 3 mps 665 mmHg 94%
    12:00 +1°C° 0.6 mm 3 mps 665 mmHg 94%
    13:00 +1°C° 0.6 mm 3 mps 665 mmHg 94%
    14:00 +1°C° 0.3 mm 3 mps 665 mmHg 94%
    15:00 +1°C° 0.3 mm 3 mps 665 mmHg 94%
    16:00 0°C° 0.3 mm 3 mps 664 mmHg 94%
    17:00 0°C° 0 mm 3 mps 664 mmHg 94%
    18:00 -1°C° 0 mm 3 mps 664 mmHg 95%
    19:00 -1°C° 0 mm 3 mps 664 mmHg 95%
    20:00 -1°C° 0 mm 3 mps 664 mmHg 95%
    21:00 -1°C° 0 mm 3 mps 664 mmHg 95%
    22:00 -1°C° 0 mm 3 mps 664 mmHg 95%
    23:00 -1°C° 0 mm 2 mps 664 mmHg 95%

    Tomorrow, 19 January, Saturday

    Time Temperature Precipitation Wind Pressure Humidity
    00:00 -1°C° 0 mm 2 mps 664 mmHg 96%
    01:00 -1°C° 0 mm 2 mps 664 mmHg 96%
    02:00 -1°C° 0 mm 2 mps 664 mmHg 95%
    03:00 -1°C° 0 mm 2 mps 664 mmHg 94%
    04:00 -1°C° 0 mm 2 mps 664 mmHg 93%
    05:00 -1°C° 0 mm 2 mps 664 mmHg 92%
    06:00 -1°C° 0 mm 2 mps 664 mmHg 91%
    07:00 -2°C° 0 mm 2 mps 664 mmHg 89%
    08:00 +1°C° 0 mm 2 mps 664 mmHg 88%
    09:00 +2°C° 0 mm 2 mps 665 mmHg 86%
    10:00 +4°C° 0 mm 2 mps 666 mmHg 85%
    11:00 +4°C° 0 mm 2 mps 665 mmHg 84%
    12:00 +5°C° 0 mm 2 mps 665 mmHg 84%
    13:00 +5°C° 0 mm 2 mps 665 mmHg 83%
    14:00 +4°C° 0.5 mm 2 mps 665 mmHg 87%
    15:00 +4°C° 0.5 mm 2 mps 664 mmHg 91%
    16:00 +3°C° 0.5 mm 2 mps 664 mmHg 95%
    17:00 +2°C° 0.2 mm 2 mps 664 mmHg 95%
    18:00 +2°C° 0.2 mm 2 mps 664 mmHg 94%
    19:00 +2°C° 0.2 mm 2 mps 664 mmHg 94%
    20:00 +1°C° 0.1 mm 2 mps 664 mmHg 93%
    21:00 +1°C° 0.1 mm 2 mps 664 mmHg 92%
    22:00 +1°C° 0.1 mm 2 mps 664 mmHg 91%
    23:00 +1°C° 0.3 mm 2 mps 664 mmHg 91%

    Day after tomorrow, 20 January, Sunday

    Time Temperature Precipitation Wind Pressure Humidity
    00:00 +1°C° 0.3 mm 2 mps 664 mmHg 91%
    01:00 +1°C° 0.3 mm 2 mps 664 mmHg 91%
    02:00 +1°C° 0.2 mm 2 mps 663 mmHg 91%
    03:00 +1°C° 0.2 mm 2 mps 663 mmHg 92%
    04:00 +1°C° 0.2 mm 2 mps 663 mmHg 92%
    05:00 +1°C° 0 mm 2 mps 663 mmHg 92%
    06:00 -1°C° 0 mm 2 mps 663 mmHg 93%
    07:00 -1°C° 0 mm 2 mps 663 mmHg 93%
    08:00 +1°C° 0 mm 2 mps 663 mmHg 91%
    09:00 +3°C° 0 mm 2 mps 664 mmHg 89%
    10:00 +4°C° 0 mm 2 mps 664 mmHg 87%
    11:00 +4°C° 0.1 mm 2 mps 664 mmHg 85%
    12:00 +5°C° 0.1 mm 2 mps 664 mmHg 83%
    13:00 +6°C° 0.1 mm 1 mps 664 mmHg 81%
    14:00 +5°C° 0.3 mm 1 mps 664 mmHg 83%
    15:00 +5°C° 0.3 mm 1 mps 663 mmHg 86%
    16:00 +5°C° 0.3 mm 1 mps 663 mmHg 88%
    17:00 +4°C° 0 mm 1 mps 663 mmHg 90%
    18:00 +3°C° 0 mm 1 mps 663 mmHg 91%
    19:00 +1°C° 0 mm 0 mps 663 mmHg 93%
    20:00 +2°C° 0 mm 1 mps 663 mmHg 93%
    21:00 +1°C° 0 mm 1 mps 664 mmHg 92%
    22:00 +1°C° 0 mm 1 mps 664 mmHg 92%
    23:00 0°C° 0 mm 1 mps 664 mmHg 91%

    21 January, Monday

    Time Temperature Precipitation Wind Pressure Humidity
    00:00 0°C° 0 mm 1 mps 664 mmHg 91%
    01:00 0°C° 0 mm 1 mps 663 mmHg 90%
    02:00 0°C° 0 mm 1 mps 663 mmHg 90%
    03:00 0°C° 0 mm 1 mps 663 mmHg 89%
    04:00 0°C° 0 mm 1 mps 663 mmHg 89%
    05:00 0°C° 0 mm 1 mps 663 mmHg 89%
    06:00 0°C° 0 mm 1 mps 664 mmHg 88%
    07:00 0°C° 0 mm 1 mps 664 mmHg 87%
    08:00 +1°C° 0 mm 1 mps 665 mmHg 84%
    09:00 +3°C° 0 mm 1 mps 665 mmHg 82%
    10:00 +4°C° 0 mm 1 mps 666 mmHg 79%
    11:00 +5°C° 0 mm 1 mps 666 mmHg 77%
    12:00 +6°C° 0 mm 1 mps 666 mmHg 75%
    13:00 +6°C° 0 mm 1 mps 666 mmHg 73%
    14:00 +6°C° 0 mm 1 mps 665 mmHg 75%
    15:00 +5°C° 0 mm 1 mps 665 mmHg 77%
    16:00 +4°C° 0 mm 1 mps 665 mmHg 79%
    17:00 +3°C° 0 mm 2 mps 665 mmHg 82%
    18:00 +2°C° 0 mm 2 mps 665 mmHg 85%
    19:00 +1°C° 0 mm 2 mps 665 mmHg 87%
    20:00 +1°C° 0 mm 2 mps 665 mmHg 88%
    21:00 -1°C° 0 mm 2 mps 665 mmHg 89%
    22:00 -1°C° 0 mm 2 mps 665 mmHg 89%
    23:00 -1°C° 0 mm 2 mps 665 mmHg 89%

    22 January, Tuesday

    Time Temperature Precipitation Wind Pressure Humidity
    00:00 -1°C° 0 mm 2 mps 664 mmHg 90%
    01:00 -1°C° 0 mm 2 mps 664 mmHg 90%
    02:00 -1°C° 0 mm 3 mps 664 mmHg 90%
    03:00 -1°C° 0 mm 3 mps 663 mmHg 90%
    04:00 -1°C° 0 mm 3 mps 663 mmHg 90%
    05:00 -1°C° 0.4 mm 3 mps 662 mmHg 90%
    06:00 -1°C° 0.4 mm 3 mps 662 mmHg 89%
    07:00 -1°C° 0.4 mm 3 mps 662 mmHg 89%
    08:00 0°C° 0.9 mm 3 mps 662 mmHg 90%
    09:00 0°C° 0.9 mm 3 mps 662 mmHg 90%
    10:00 0°C° 0.9 mm 3 mps 661 mmHg 91%
    11:00 +1°C° 0.5 mm 3 mps 661 mmHg 90%
    12:00 +1°C° 0.5 mm 3 mps 660 mmHg 90%
    13:00 +1°C° 0.5 mm 3 mps 660 mmHg 90%
    14:00 +1°C° 1.7 mm 3 mps 659 mmHg 91%
    15:00 +1°C° 1.7 mm 3 mps 659 mmHg 93%
    16:00 +2°C° 1.7 mm 2 mps 658 mmHg 94%
    17:00 +1°C° 0.4 mm 3 mps 658 mmHg 94%
    18:00 +1°C° 0.4 mm 3 mps 658 mmHg 94%
    19:00 +1°C° 0.4 mm 3 mps 658 mmHg 95%
    20:00 0°C° 0.2 mm 3 mps 658 mmHg 96%
    21:00 0°C° 0.2 mm 3 mps 658 mmHg 97%
    22:00 0°C° 0.2 mm 3 mps 658 mmHg 98%
    23:00 0°C° 0 mm 3 mps 657 mmHg 98%

    23 January, Wednesday

    Time Temperature Precipitation Wind Pressure Humidity
    00:00 0°C° 0 mm 3 mps 657 mmHg 98%
    01:00 0°C° 0 mm 3 mps 657 mmHg 98%
    02:00 -1°C° 0.1 mm 3 mps 656 mmHg 97%
    03:00 -1°C° 0.1 mm 3 mps 656 mmHg 97%
    04:00 -2°C° 0.1 mm 3 mps 655 mmHg 97%
    05:00 -2°C° 1 mm 3 mps 655 mmHg 96%
    06:00 -2°C° 1 mm 3 mps 655 mmHg 94%
    07:00 -2°C° 1 mm 3 mps 655 mmHg 93%
    08:00 -1°C° 0.1 mm 3 mps 655 mmHg 93%
    09:00 -1°C° 0.1 mm 4 mps 655 mmHg 93%
    10:00 -1°C° 0.1 mm 4 mps 655 mmHg 93%
    11:00 0°C° 0 mm 4 mps 655 mmHg 91%
    12:00 0°C° 0 mm 4 mps 655 mmHg 90%
    13:00 0°C° 0 mm 4 mps 654 mmHg 88%
    14:00 +1°C° 0 mm 3 mps 654 mmHg 88%
    15:00 0°C° 0 mm 3 mps 653 mmHg 88%
    16:00 0°C° 0 mm 3 mps 653 mmHg 88%
    17:00 -1°C° 0.1 mm 3 mps 652 mmHg 88%
    18:00 -1°C° 0.1 mm 3 mps 652 mmHg 88%
    19:00 -2°C° 0.1 mm 3 mps 652 mmHg 88%
    20:00 -2°C° 0.1 mm 3 mps 651 mmHg 86%
    21:00 -2°C° 0.1 mm 3 mps 651 mmHg 85%
    22:00 -2°C° 0.1 mm 3 mps 650 mmHg 84%
    23:00 -2°C° 0.5 mm 3 mps 650 mmHg 86%
    Show more